Tracking 21472 objects as of 22-Sep-2020
HD Live streaming from Space Station
objects crossing your sky now

STARLINK-1532

Track STARLINK-1532 now!
10-day predictions
STARLINK-1532 is classified as:


NORAD ID: 46068
Int'l Code: 2020-055AT
Perigee: 381.0 km
Apogee: 392.8 km
Inclination: 53.0 °
Period: 92.1 minutes
Semi major axis: 6757 km
RCS: Unknown
Launch date: August 7, 2020
Source: United States (US)
Launch site: AIR FORCE EASTERN TEST RANGE (AFETR)
aabbcc
Your satellite tracking list
Your tracking list is empty




NASA's NSSDC Master Catalog

Two Line Element Set (TLE):
1 46068U 20055AT  20266.16667824 -.00006762  00000-0 -67861-4 0  9997
2 46068  52.9972  66.5656 0008777   1.3413  70.8334 15.62740566  7931
Source of the keplerian elements: AFSPC